Location: Mentone
(34.5413°N, 85.5351°W)
Time: 05:09:04
(UTC-05:00)

Amateur Radio Satellites - All Passes

Search period start: 26 August 2016 04:39
Search period end: 27 August 2016 04:39
Location: Mentone, 34.5413°N, 85.5351°W

Satellite Date Start Highest point End Downlink Frequencies (MHz)
Time Altitude Azimuth
HORYU 2 26 Aug 04:45:06 04:47:40 15° 94° (E) 04:50:13 437.375
MOZHAYETS 4 26 Aug 04:57:04 04:59:50 16° 266° (W) 05:02:38
KKS-1 26 Aug 05:05:08 05:07:49 16° 266° (W) 05:10:32 437.445
Cosmos 2491 26 Aug 05:05:11 05:13:31 44° 77° (ENE) 05:21:47 435.465 / 435.565
PHONESAT 2.4 26 Aug 05:10:06 05:12:39 24° 2° (N) 05:15:11 2401.200-2431.200
AO-85 26 Aug 05:22:53 05:28:08 59° 116° (ESE) 05:33:12 145.980
GOMX 1 26 Aug 05:43:42 05:46:08 13° 90° (E) 05:48:31 467.674
STARS 26 Aug 05:47:54 05:49:01 11° 268° (W) 05:50:08 437.465
BRITE-PL 26 Aug 05:55:35 06:01:01 44° 98° (E) 06:06:18 437.365/2234.400
AO-7 26 Aug 05:58:20 06:05:13 30° 299° (WNW) 06:12:05 29.400- 29.500
LilacSat-2 26 Aug 06:05:10 06:07:36 16° 94° (E) 06:10:02 437.200
CUBESAT XI-V 26 Aug 06:11:11 06:14:40 21° 265° (W) 06:18:11 437.345
YUBILEINY 26 Aug 06:14:49 06:23:25 60° 91° (E) 06:32:02 435.215
HORYU 2 26 Aug 06:20:14 06:24:20 39° 288° (WNW) 06:28:25 437.375
RS-15 26 Aug 06:20:15 06:25:21 13° 355° (N) 06:30:30 29.354- 29.394
Cubesat XI-IV 26 Aug 06:34:42 06:39:43 42° 99° (E) 06:44:43 437.490
STRAND 1 26 Aug 06:45:21 06:50:07 42° 72° (ENE) 06:54:54 437.568
PHONESAT 2.4 26 Aug 06:46:28 06:49:22 47° 17° (NNE) 06:52:16 2401.200-2431.200
CUTE-I 26 Aug 06:47:00 06:52:14 57° 101° (E) 06:57:27 437.470
NOAA 15 26 Aug 06:54:16 06:59:37 88° 104° (ESE) 07:04:56 137.62
Cosmos 2491 26 Aug 07:02:19 07:10:03 36° 274° (W) 07:17:47 435.465 / 435.565
AO-85 26 Aug 07:05:18 07:08:56 18° 310° (NW) 07:12:26 145.980
NOAA 18 26 Aug 07:11:35 07:17:05 85° 104° (ESE) 07:22:32 137.9125
GOMX 1 26 Aug 07:19:16 07:24:39 64° 285° (WNW) 07:29:44 467.674
BRITE-PL 26 Aug 07:34:44 07:39:05 23° 293° (WNW) 07:43:24 437.365/2234.400
DOVE 4 26 Aug 07:35:08 07:40:13 85° 100° (E) 07:44:58 437.250
Cosmos 2504 26 Aug 07:36:23 07:44:57 73° 93° (E) 07:52:58 435.465 / 435.565
LilacSat-2 26 Aug 07:38:45 07:41:52 25° 288° (WNW) 07:44:59 437.200
SEEDS 26 Aug 07:50:53 07:53:08 14° 93° (E) 07:55:21 437.485
HO-68 26 Aug 08:00:26 08:06:58 37° 99° (E) 08:13:26 435.675
CANX-2 26 Aug 08:07:17 08:11:15 39° 98° (E) 08:15:13 2200.000
YUBILEINY 26 Aug 08:13:36 08:20:39 26° 289° (WNW) 08:27:45 435.215
CUTE 1.7 + AOD 2 26 Aug 08:13:44 08:17:43 40° 98° (E) 08:21:42 437.475
PRISM 26 Aug 08:15:16 08:18:59 35° 72° (ENE) 08:22:44 437.425
Cubesat XI-IV 26 Aug 08:15:35 08:19:28 21° 294° (WNW) 08:23:19 437.490
SO-50 26 Aug 08:20:41 08:24:13 21° 51° (NE) 08:27:41 436.795
PHONESAT 2.4 26 Aug 08:23:02 08:25:37 27° 213° (SSW) 08:28:13 2401.200-2431.200
STRAND 1 26 Aug 08:25:53 08:29:25 19° 266° (W) 08:32:58 437.568
AAUSAT CUBESAT 2 26 Aug 08:26:25 08:29:28 20° 95° (E) 08:32:31 437.432
AIST 1 26 Aug 08:28:19 08:30:31 14° 86° (E) 08:32:43
CUTE-I 26 Aug 08:28:40 08:31:46 16° 296° (WNW) 08:34:51 437.470
CINEMA 3 26 Aug 08:28:54 08:33:27 85° 103° (ESE) 08:37:45 145.822/145.860
COMPASS 1 26 Aug 08:32:10 08:35:52 30° 97° (E) 08:39:33 437.405
RS-15 26 Aug 08:35:54 08:45:00 23° 32° (NNE) 08:54:00 29.354- 29.394
NOAA 15 26 Aug 08:38:03 08:38:35 10° 299° (WNW) 08:39:07 137.62
Oscar 11 26 Aug 08:53:59 08:56:36 16° 94° (E) 08:59:11 145.826/435.025
NOAA 18 26 Aug 08:55:29 08:56:57 11° 299° (WNW) 08:58:24 137.9125
CUBEBUG 2 26 Aug 08:58:37 09:02:40 44° 99° (E) 09:06:37 437.445
FUNcube-1 26 Aug 08:59:06 09:01:36 16° 94° (E) 09:04:05 145.935
UWE-3 26 Aug 09:00:11 09:03:50 29° 97° (E) 09:07:26 435.000/436.395/437.385
ISS 26 Aug 09:09:28 09:12:43 62° 319° (NW) 09:15:58 145.825
ANTELSAT 26 Aug 09:11:01 09:13:42 15° 67° (ENE) 09:16:22 437.575/2403.000
ZACube-1 26 Aug 09:18:38 09:22:17 29° 97° (E) 09:25:54 437.345
SEEDS 26 Aug 09:25:02 09:28:56 38° 286° (WNW) 09:32:49 437.485
Cosmos 2504 26 Aug 09:33:04 09:38:52 20° 289° (WNW) 09:44:28 435.465 / 435.565
TIGRISAT 26 Aug 09:40:53 09:44:57 31° 72° (ENE) 09:48:58 435.000
CANX-2 26 Aug 09:44:25 09:46:45 15° 292° (WNW) 09:49:04 2200.000
HO-68 26 Aug 09:48:08 09:54:32 37° 294° (WNW) 10:00:55 435.675
BEESAT 2 26 Aug 09:50:38 09:54:11 33° 113° (ESE) 09:57:46 435.950
CUTE 1.7 + AOD 2 26 Aug 09:50:56 09:53:11 14° 292° (WNW) 09:55:26 437.475
PRISM 26 Aug 09:52:11 09:54:23 14° 266° (W) 09:56:35 437.425
SO-50 26 Aug 10:00:38 10:04:46 35° 247° (WSW) 10:08:48 436.795
AAUSAT CUBESAT 2 26 Aug 10:01:23 10:04:54 27° 288° (WNW) 10:08:24 437.432
CUSAT 1 26 Aug 10:02:28 10:08:34 40° 78° (ENE) 10:15:41 437.405
AIST 1 26 Aug 10:03:40 10:07:41 37° 281° (W) 10:11:46
UNISAT 6 26 Aug 10:08:19 10:12:56 69° 76° (ENE) 10:17:29 437.425
COMPASS 1 26 Aug 10:08:20 10:11:10 18° 291° (WNW) 10:14:01 437.405
BEESAT 3 26 Aug 10:11:50 10:15:40 58° 300° (WNW) 10:19:34 437.485
DELFI C3 26 Aug 10:18:43 10:22:43 67° 102° (ESE) 10:26:41 145.870
HUMSAT D 26 Aug 10:19:38 10:23:11 28° 97° (E) 10:26:44 437.325/437.525
NANOSAT C BR1 26 Aug 10:22:24 10:23:31 11° 66° (ENE) 10:24:39 145.865
JUGNU 26 Aug 10:26:11 10:27:24 11° 164° (SSE) 10:28:37 437.505
Oscar 11 26 Aug 10:28:52 10:32:48 36° 287° (WNW) 10:36:44 145.826/435.025
FUNcube-1 26 Aug 10:34:13 10:37:54 32° 288° (WNW) 10:41:34 145.935
GONETS M04 26 Aug 10:34:34 10:39:02 15° 78° (ENE) 10:43:29
CUBEBUG 2 26 Aug 10:37:06 10:38:51 12° 294° (WNW) 10:40:35 437.445
UWE-3 26 Aug 10:37:13 10:40:03 18° 291° (WNW) 10:42:52 435.000/436.395/437.385
DANDE 26 Aug 10:43:34 10:48:31 32° 79° (E) 10:54:39 436.750
ANTELSAT 26 Aug 10:45:36 10:50:02 44° 261° (W) 10:54:24 437.575/2403.000
RS-15 26 Aug 10:47:48 11:00:13 72° 59° (ENE) 11:12:17 29.354- 29.394
M-CUBED/EXP-1 PRIME 26 Aug 10:49:23 10:51:13 13° 96° (E) 10:52:59 437.505
Cosmos 2499 26 Aug 10:51:17 10:54:58 14° 81° (E) 10:58:32 435.465 / 435.565
ZACube-1 26 Aug 10:55:33 10:58:20 18° 291° (WNW) 11:01:05 437.345
QB50P1 26 Aug 11:02:21 11:06:15 35° 72° (ENE) 11:10:09 145.935-145.965
BUGSAT 1 26 Aug 11:09:51 11:12:22 15° 68° (ENE) 11:14:53 437.445
POPSAT HIP 1 26 Aug 11:11:59 11:16:04 45° 74° (ENE) 11:20:10 437.405
TIGRISAT 26 Aug 11:18:06 11:21:36 21° 265° (W) 11:25:04 435.000
PCSat 26 Aug 11:20:50 11:25:37 33° 109° (ESE) 11:30:27 145.827
BEESAT 2 26 Aug 11:29:24 11:32:05 17° 309° (NW) 11:34:47 435.950
VELOX 1 26 Aug 11:36:54 11:39:51 17° 94° (E) 11:42:47 145.980
50 SAT 26 Aug 11:37:21 11:39:28 15° 95° (E) 11:41:36 437.505
DUCHIFAT 1 26 Aug 11:41:25 11:45:41 87° 254° (WSW) 11:49:58 145.980
QB50P2 26 Aug 11:41:47 11:46:03 70° 259° (WSW) 11:50:19 145.880/145.840
CUBEBUG 1 26 Aug 11:42:35 11:46:15 25° 96° (E) 11:49:53 437.445
POLYITAN 1 26 Aug 11:44:19 11:48:34 68° 259° (WSW) 11:52:51 437.675
CUSAT 1 26 Aug 11:44:33 11:50:26 35° 268° (W) 11:57:13 437.405
AIST 2 26 Aug 11:48:45 11:52:05 24° 111° (ESE) 11:55:26 435.215
NANOSAT C BR1 26 Aug 11:54:33 11:58:44 55° 260° (W) 12:02:55 145.865
HUMSAT D 26 Aug 11:55:48 11:58:34 18° 291° (WNW) 12:01:20 437.325/437.525
DX 1 26 Aug 11:59:19 12:02:35 20° 96° (E) 12:05:49 434.975-435.025
SPROUT 26 Aug 12:08:02 12:11:04 19° 95° (E) 12:14:05 437.525
ESTCUBE 1 26 Aug 12:09:35 12:14:08 86° 100° (E) 12:18:40 437.505/2401.250
JUGNU 26 Aug 12:11:52 12:15:41 18° 174° (S) 12:19:29 437.505
JAS-2 26 Aug 12:13:55 12:19:05 89° 78° (ENE) 12:24:29 435.910
AUBIESAT-1 26 Aug 12:17:42 12:21:39 53° 290° (WNW) 12:25:16 437.475
M-CUBED/EXP-1 PRIME 26 Aug 12:22:09 12:25:58 37° 293° (WNW) 12:29:29 437.505
AISAT 26 Aug 12:24:28 12:28:55 68° 101° (ESE) 12:33:20 437.250
GONETS M04 26 Aug 12:25:47 12:34:32 88° 274° (W) 12:43:23
DANDE 26 Aug 12:26:06 12:31:10 34° 265° (W) 12:37:26 436.750
Cosmos 2499 26 Aug 12:38:43 12:47:07 89° 277° (W) 12:54:53 435.465 / 435.565
QB50P1 26 Aug 12:39:29 12:42:05 16° 266° (W) 12:44:42 145.935-145.965
UKube-1 26 Aug 12:41:59 12:46:13 50° 100° (E) 12:50:24 .
BUGSAT 1 26 Aug 12:43:28 12:47:24 37° 262° (W) 12:51:21 437.445
Oscar 19 26 Aug 12:45:21 12:49:58 34° 70° (ENE) 12:54:36 437.125/150
POPSAT HIP 1 26 Aug 12:50:18 12:52:02 12° 267° (W) 12:53:46 437.405
RS-15 26 Aug 13:01:45 13:11:37 30° 257° (WSW) 13:21:17 29.354- 29.394
PCSat 26 Aug 13:04:19 13:08:59 29° 304° (NW) 13:13:40 145.827
50 SAT 26 Aug 13:09:58 13:13:02 26° 288° (WNW) 13:16:07 437.505
VELOX 1 26 Aug 13:12:18 13:16:22 35° 288° (WNW) 13:20:24 145.980
CUBEBUG 1 26 Aug 13:18:51 13:22:23 24° 290° (WNW) 13:25:54 437.445
AIST 2 26 Aug 13:27:05 13:30:27 24° 307° (NW) 13:33:51 435.215
DX 1 26 Aug 13:34:57 13:38:44 29° 289° (WNW) 13:42:29 434.975-435.025
Gurwin Techsat 1B 26 Aug 13:43:06 13:48:18 58° 73° (ENE) 13:53:31 435.225
SPROUT 26 Aug 13:43:18 13:47:00 29° 288° (WNW) 13:50:40 437.525
SRMSAT 26 Aug 13:46:27 13:49:41 15° 169° (S) 13:52:54 437.500
ITAMSAT 1 26 Aug 13:57:02 14:00:59 22° 67° (ENE) 14:04:56 435.822/435.867
O/OREOS (USA 219) 26 Aug 13:58:04 14:02:30 70° 107° (ESE) 14:06:59 437.305
AO-85 26 Aug 13:59:40 14:02:26 17° 49° (NE) 14:05:06 145.980
JUGNU 26 Aug 14:00:03 14:04:00 18° 184° (S) 14:07:55 437.505
ITUPSAT 1 26 Aug 14:01:22 14:03:33 13° 93° (E) 14:05:43 437.325
TISAT 1 26 Aug 14:07:17 14:11:30 80° 284° (WNW) 14:15:40 437.305
UKube-1 26 Aug 14:20:00 14:21:46 12° 295° (WNW) 14:23:32 .
Oscar 19 26 Aug 14:25:13 14:29:17 23° 265° (W) 14:33:23 437.125/150
GONETS M04 26 Aug 14:27:58 14:32:35 15° 295° (WNW) 14:37:12
SWISSCUBE 26 Aug 14:33:23 14:37:45 35° 98° (E) 14:42:05 437.505
Cosmos 2499 26 Aug 14:37:11 14:41:02 14° 292° (WNW) 14:44:48 435.465 / 435.565
BEESAT 26 Aug 14:50:31 14:55:07 48° 100° (E) 14:59:42 436.000
AO-7 26 Aug 14:59:39 15:07:43 55° 67° (ENE) 15:15:48 29.400- 29.500
MOZHAYETS 4 26 Aug 15:18:44 15:20:31 12° 92° (E) 15:22:16
Gurwin Techsat 1B 26 Aug 15:25:45 15:28:33 14° 267° (W) 15:31:21 435.225
SRMSAT 26 Aug 15:34:06 15:38:07 19° 180° (S) 15:42:10 437.500
ITAMSAT 1 26 Aug 15:35:24 15:40:10 37° 261° (W) 15:44:58 435.822/435.867
ITUPSAT 1 26 Aug 15:36:59 15:41:37 52° 286° (WNW) 15:46:15 437.325
AO-85 26 Aug 15:39:14 15:43:02 36° 247° (WSW) 15:46:36 145.980
ISS 26 Aug 15:40:15 15:43:09 28° 36° (NE) 15:46:02 145.825
O/OREOS (USA 219) 26 Aug 15:42:08 15:42:23 10° 304° (NW) 15:42:38 437.305
JUGNU 26 Aug 15:49:58 15:52:16 12° 194° (SSW) 15:54:34 437.505
STARS 26 Aug 16:02:52 16:04:50 13° 93° (E) 16:06:49 437.465
SWISSCUBE 26 Aug 16:11:48 16:15:17 20° 292° (WNW) 16:18:44 437.505
BEESAT 26 Aug 16:29:45 16:32:27 15° 294° (WNW) 16:35:08 436.000
YUBILEINY 26 Aug 16:30:31 16:37:14 24° 70° (ENE) 16:43:53 435.215
NOAA 15 26 Aug 16:35:59 16:37:01 11° 61° (ENE) 16:38:03 137.62
MOZHAYETS 4 26 Aug 16:53:29 16:57:55 52° 286° (WNW) 17:02:21
AO-7 26 Aug 16:53:47 17:00:42 29° 263° (W) 17:07:41 29.400- 29.500
NOAA 18 26 Aug 16:57:14 16:59:52 14° 62° (ENE) 17:02:30 137.9125
KKS-1 26 Aug 16:57:29 17:01:54 62° 285° (WNW) 17:06:16 437.445
BRITE-PL 26 Aug 17:03:07 17:07:14 30° 69° (ENE) 17:11:40 437.365/2234.400
HORYU 2 26 Aug 17:14:07 17:18:33 67° 258° (WSW) 17:23:00 437.375
ISS 26 Aug 17:16:54 17:19:30 22° 231° (SW) 17:22:06 145.825
SRMSAT 26 Aug 17:23:12 17:26:35 16° 190° (S) 17:29:58 437.500
Cosmos 2504 26 Aug 17:35:28 17:40:01 17° 69° (ENE) 17:44:30 435.465 / 435.565
STARS 26 Aug 17:37:11 17:41:23 45° 287° (WNW) 17:45:33 437.465
Cubesat XI-IV 26 Aug 17:53:07 17:58:16 50° 72° (ENE) 18:03:25 437.490
Cosmos 2491 26 Aug 18:01:33 18:09:57 56° 90° (E) 18:18:25 435.465 / 435.565
CUTE-I 26 Aug 18:05:14 18:10:32 66° 74° (ENE) 18:15:49 437.470
CUBESAT XI-V 26 Aug 18:09:47 18:14:27 67° 284° (WNW) 18:19:07 437.345
NOAA 15 26 Aug 18:10:46 18:16:01 83° 257° (WSW) 18:21:19 137.62
LilacSat-2 26 Aug 18:16:14 18:20:05 89° 86° (E) 18:23:57 437.200
GOMX 1 26 Aug 18:22:54 18:27:50 88° 258° (WSW) 18:33:09 467.674
YUBILEINY 26 Aug 18:25:59 18:34:36 64° 268° (W) 18:43:08 435.215
HO-68 26 Aug 18:26:55 18:31:47 20° 60° (ENE) 18:36:41 435.675
BEESAT 3 26 Aug 18:32:33 18:35:51 25° 54° (NE) 18:39:08 437.485
NOAA 18 26 Aug 18:34:19 18:39:51 72° 257° (WSW) 18:45:24 137.9125
DOVE 4 26 Aug 18:35:57 18:40:55 57° 74° (ENE) 18:46:05 437.250
BRITE-PL 26 Aug 18:41:56 18:45:42 24° 267° (W) 18:49:43 437.365/2234.400
CANX-2 26 Aug 18:57:29 19:00:22 18° 69° (ENE) 19:03:15 2200.000
STRAND 1 26 Aug 19:00:13 19:03:46 19° 94° (E) 19:07:18 437.568
CUTE 1.7 + AOD 2 26 Aug 19:03:48 19:06:43 19° 69° (ENE) 19:09:39 437.475
COMPASS 1 26 Aug 19:21:03 19:23:04 13° 67° (ENE) 19:25:03 437.405
CINEMA 3 26 Aug 19:25:55 19:30:46 52° 74° (ENE) 19:35:37 145.822/145.860
Cosmos 2504 26 Aug 19:26:51 19:33:59 67° 267° (W) 19:41:04 435.465 / 435.565
Cubesat XI-IV 26 Aug 19:35:08 19:38:32 17° 266° (W) 19:41:57 437.490
CUTE-I 26 Aug 19:48:49 19:50:58 12° 268° (W) 19:53:05 437.470
BEESAT 2 26 Aug 19:48:55 19:52:57 86° 243° (WSW) 19:56:56 435.950
CUBEBUG 2 26 Aug 19:53:01 19:56:58 27° 71° (ENE) 20:00:51 437.445
UWE-3 26 Aug 19:54:10 19:57:15 18° 69° (ENE) 20:00:18 435.000/436.395/437.385
Cosmos 2491 26 Aug 20:00:05 20:07:09 27° 288° (WNW) 20:14:18 435.465 / 435.565
BEESAT 3 26 Aug 20:10:17 20:13:23 22° 249° (WSW) 20:16:27 437.485
HO-68 26 Aug 20:11:37 20:18:46 71° 257° (WSW) 20:25:58 435.675
ZACube-1 26 Aug 20:11:38 20:14:33 17° 69° (ENE) 20:17:26 437.345
SEEDS 26 Aug 20:12:35 20:16:45 89° 59° (ENE) 20:20:56 437.485
PCSat 26 Aug 20:13:11 20:16:09 15° 49° (NE) 20:19:06 145.827
AIST 1 26 Aug 20:14:08 20:18:09 34° 79° (ENE) 20:22:09
DOVE 4 26 Aug 20:16:15 20:18:56 14° 269° (W) 20:21:40 437.250
CANX-2 26 Aug 20:32:17 20:35:59 30° 263° (W) 20:39:41 2200.000
STRAND 1 26 Aug 20:38:17 20:43:03 42° 289° (WNW) 20:47:50 437.568
CUTE 1.7 + AOD 2 26 Aug 20:38:39 20:42:20 29° 263° (W) 20:46:00 437.475
AAUSAT CUBESAT 2 26 Aug 20:47:13 20:51:16 65° 259° (WSW) 20:55:22 437.432
COMPASS 1 26 Aug 20:54:21 20:58:13 40° 261° (W) 21:02:07 437.405
DELFI C3 26 Aug 21:01:40 21:04:46 23° 71° (ENE) 21:07:53 145.870
CINEMA 3 26 Aug 21:05:19 21:08:06 15° 268° (W) 21:10:54 145.822/145.860
HUMSAT D 26 Aug 21:08:52 21:10:58 14° 68° (ENE) 21:13:02 437.325/437.525
Oscar 11 26 Aug 21:19:23 21:23:40 76° 257° (WSW) 21:28:00 145.826/435.025
FUNcube-1 26 Aug 21:25:08 21:29:37 70° 259° (W) 21:34:01 145.935
UWE-3 26 Aug 21:29:09 21:33:25 36° 262° (W) 21:37:36 435.000/436.395/437.385
CUBEBUG 2 26 Aug 21:29:35 21:33:28 25° 264° (W) 21:37:17 437.445
M-CUBED/EXP-1 PRIME 26 Aug 21:31:55 21:34:13 14° 60° (ENE) 21:36:32 437.505
PRISM 26 Aug 21:34:50 21:39:01 82° 282° (WNW) 21:43:12 437.425
ZACube-1 26 Aug 21:46:23 21:50:32 36° 262° (W) 21:54:37 437.345
AIST 2 26 Aug 21:50:38 21:54:49 73° 61° (ENE) 21:58:58 435.215
AIST 1 26 Aug 21:52:49 21:55:24 15° 273° (W) 21:57:58
PCSat 26 Aug 21:54:42 22:00:07 76° 246° (WSW) 22:05:30 145.827
UNISAT 6 26 Aug 22:04:49 22:07:41 17° 94° (E) 22:10:31 437.425
SO-50 26 Aug 22:32:24 22:35:15 16° 108° (ESE) 22:38:05 436.795
VELOX 1 26 Aug 22:33:03 22:33:55 10° 64° (ENE) 22:34:46 145.980
Cosmos 2499 26 Aug 22:35:22 22:40:43 22° 72° (ENE) 22:46:05 435.465 / 435.565
CUBEBUG 1 26 Aug 22:36:18 22:38:40 14° 67° (ENE) 22:41:03 437.445
DELFI C3 26 Aug 22:36:34 22:39:30 20° 265° (W) 22:42:27 145.870
ANTELSAT 26 Aug 22:40:46 22:44:55 47° 99° (E) 22:49:01 437.575/2403.000
GONETS M04 26 Aug 22:40:53 22:49:04 40° 76° (ENE) 22:57:10
HUMSAT D 26 Aug 22:42:16 22:46:13 40° 261° (W) 22:50:08 437.325/437.525
DX 1 26 Aug 22:53:04 22:54:45 12° 65° (ENE) 22:56:27 434.975-435.025
AUBIESAT-1 26 Aug 22:58:49 23:03:24 84° 253° (WSW) 23:08:05 437.475
M-CUBED/EXP-1 PRIME 26 Aug 23:03:35 23:08:09 61° 255° (WSW) 23:12:50 437.505
CUSAT 1 26 Aug 23:04:56 23:07:06 21° 90° (E) 23:09:34 437.405
ESTCUBE 1 26 Aug 23:05:27 23:09:46 49° 74° (ENE) 23:14:06 437.505/2401.250
TIGRISAT 26 Aug 23:11:57 23:16:13 74° 285° (WNW) 23:20:26 435.000
AISAT 26 Aug 23:18:16 23:22:22 38° 72° (ENE) 23:26:30 437.250
JAS-2 26 Aug 23:26:34 23:30:53 17° 93° (E) 23:35:23 435.910
DUCHIFAT 1 26 Aug 23:30:01 23:32:59 19° 95° (E) 23:35:57 145.980
QB50P2 26 Aug 23:30:48 23:34:14 24° 96° (E) 23:37:38 145.880/145.840
UKube-1 26 Aug 23:33:19 23:36:57 27° 70° (ENE) 23:40:36 .
POLYITAN 1 26 Aug 23:33:19 23:36:46 24° 96° (E) 23:40:09 437.675
UNISAT 6 26 Aug 23:40:40 23:44:26 31° 288° (WNW) 23:48:10 437.425
NANOSAT C BR1 26 Aug 23:42:44 23:46:24 29° 97° (E) 23:50:03 145.865
50 SAT 26 Aug 23:42:58 23:46:31 72° 77° (ENE) 23:50:05 437.505
DANDE 26 Aug 23:52:25 23:54:25 20° 93° (E) 23:56:25 436.750
VELOX 1 27 Aug 00:05:25 00:09:47 62° 259° (WSW) 00:14:13 145.980
CUBEBUG 1 27 Aug 00:10:23 00:14:32 43° 261° (W) 00:18:45 437.445
SO-50 27 Aug 00:10:34 00:15:17 51° 302° (WNW) 00:20:01 436.795
O/OREOS (USA 219) 27 Aug 00:11:26 00:16:03 74° 70° (ENE) 00:20:38 437.305
ANTELSAT 27 Aug 00:19:28 00:21:10 12° 294° (WNW) 00:22:51 437.575/2403.000
QB50P1 27 Aug 00:25:46 00:29:59 74° 283° (WNW) 00:34:09 145.935-145.965
DX 1 27 Aug 00:26:12 00:30:26 52° 260° (W) 00:34:43 434.975-435.025
Cosmos 2499 27 Aug 00:27:20 00:34:06 51° 269° (W) 00:40:59 435.465 / 435.565
BUGSAT 1 27 Aug 00:28:41 00:32:33 38° 99° (E) 00:36:20 437.445
SPROUT 27 Aug 00:32:25 00:36:40 62° 260° (W) 00:40:57 437.525
POPSAT HIP 1 27 Aug 00:35:44 00:39:52 56° 285° (WNW) 00:43:58 437.405
GONETS M04 27 Aug 00:37:45 00:45:44 39° 273° (W) 00:53:41
ESTCUBE 1 27 Aug 00:45:04 00:46:48 12° 268° (W) 00:48:33 437.505/2401.250
PHONESAT 2.4 27 Aug 00:49:51 00:51:58 18° 145° (SE) 00:54:04 2401.200-2431.200
TISAT 1 27 Aug 00:55:09 00:59:12 45° 74° (ENE) 01:03:16 437.305
AISAT 27 Aug 00:56:13 00:58:56 16° 266° (W) 01:01:40 437.250
Oscar 19 27 Aug 01:01:29 01:04:37 16° 93° (E) 01:07:44 437.125/150
DUCHIFAT 1 27 Aug 01:05:05 01:08:40 28° 289° (WNW) 01:12:14 145.980
RS-15 27 Aug 01:05:40 01:16:49 65° 112° (ESE) 01:28:37 29.354- 29.394
ITUPSAT 1 27 Aug 01:06:10 01:07:25 11° 64° (ENE) 01:08:41 437.325
QB50P2 27 Aug 01:06:35 01:09:54 23° 290° (WNW) 01:13:12 145.880/145.840
POLYITAN 1 27 Aug 01:09:08 01:12:25 22° 290° (WNW) 01:15:40 437.675
JAS-2 27 Aug 01:09:18 01:16:12 78° 285° (WNW) 01:23:49 435.910
UKube-1 27 Aug 01:09:38 01:12:56 21° 264° (W) 01:16:15 .
NANOSAT C BR1 27 Aug 01:18:58 01:21:54 19° 291° (WNW) 01:24:50 145.865
SWISSCUBE 27 Aug 01:36:40 01:40:40 28° 70° (ENE) 01:44:40 437.505
BEESAT 27 Aug 01:53:28 01:57:51 37° 71° (ENE) 02:02:12 436.000
Gurwin Techsat 1B 27 Aug 02:03:16 02:07:55 30° 97° (E) 02:12:32 435.225
BUGSAT 1 27 Aug 02:05:23 02:07:32 14° 293° (WNW) 02:09:41 437.445
PHONESAT 2.4 27 Aug 02:25:05 02:28:05 67° 339° (NNW) 02:31:04 2401.200-2431.200
TISAT 1 27 Aug 02:33:23 02:35:01 12° 267° (W) 02:36:41 437.305
Oscar 19 27 Aug 02:39:09 02:44:10 50° 287° (WNW) 02:49:10 437.125/150
ITUPSAT 1 27 Aug 02:39:54 02:44:38 68° 258° (WSW) 02:49:23 437.325
JAS-2 27 Aug 02:57:40 03:00:22 13° 299° (WNW) 03:03:09 435.910
AO-7 27 Aug 03:06:40 03:12:33 21° 95° (E) 03:18:22 29.400- 29.500
SWISSCUBE 27 Aug 03:14:28 03:18:22 25° 264° (W) 03:22:16 437.505
RS-15 27 Aug 03:19:32 03:29:59 37° 315° (NW) 03:41:00 29.354- 29.394
BEESAT 27 Aug 03:32:25 03:35:42 18° 265° (W) 03:38:59 436.000
Gurwin Techsat 1B 27 Aug 03:43:15 03:47:43 28° 291° (WNW) 03:52:11 435.225
ITAMSAT 1 27 Aug 03:51:15 03:56:26 80° 285° (WNW) 04:01:37 435.822/435.867
MOZHAYETS 4 27 Aug 03:51:22 03:55:56 85° 259° (W) 04:00:31
KKS-1 27 Aug 03:51:33 03:56:01 77° 76° (ENE) 04:00:31 437.445
PHONESAT 2.4 27 Aug 04:02:08 04:04:43 26° 355° (N) 04:07:18 2401.200-2431.200
AO-85 27 Aug 04:10:23 04:13:36 16° 108° (ESE) 04:16:46 145.980
Cosmos 2491 27 Aug 04:17:14 04:23:52 23° 70° (ENE) 04:30:27 435.465 / 435.565
STARS 27 Aug 04:29:40 04:34:07 83° 259° (WSW) 04:38:34 437.465
